Time,TemperatureF,DewpointF,PressureIn,WindDirection,WindDirectionDegrees,WindSpeedMPH,WindSpeedGustMPH,Humidity,HourlyPrecipIn,Conditions,Clouds,dailyrainin,SolarRadiationWatts/m^2,SoftwareType,DateUTC
2013-09-23 00:01:00,60.7,51.2,29.78,SSE,158,6.0,6.0,71,0.00,,---,0.00,0.00,VWS V14.01,2013-09-23 05:01:00,
2013-09-23 00:06:00,60.5,51.1,29.78,SE,130,3.0,5.0,71,0.00,,---,0.00,0.00,VWS V14.01,2013-09-23 05:06:00,
2013-09-23 00:11:00,60.5,51.4,29.78,SE,138,4.0,4.0,72,0.00,,---,0.00,0.00,VWS V14.01,2013-09-23 05:11:00,
2013-09-23 00:16:00,60.4,51.3,29.79,SE,137,6.0,10.0,72,0.00,,---,0.00,0.00,VWS V14.01,2013-09-23 05:16:00,
2013-09-23 00:21:00,60.2,51.2,29.79,SSE,165,1.0,3.0,72,0.00,,---,0.00,0.00,VWS V14.01,2013-09-23 05:21:00,
2013-09-23 00:26:00,60.2,51.2,29.79,ESE,107,5.0,5.0,72,0.00,,---,0.00,0.00,VWS V14.01,2013-09-23 05:26:00,
2013-09-23 00:31:00,60.1,51.1,29.79,ESE,103,2.0,2.0,72,0.00,,---,0.00,0.00,VWS V14.01,2013-09-23 05:31:00,
2013-09-23 00:36:00,60.1,51.1,29.79,SSE,161,3.0,6.0,72,0.00,,---,0.00,0.00,VWS V14.01,2013-09-23 05:36:00,
2013-09-23 00:41:00,59.9,50.9,29.79,ESE,114,2.0,6.0,72,0.00,,---,0.00,0.00,VWS V14.01,2013-09-23 05:41:00,
2013-09-23 00:46:00,59.8,51.1,29.79,ESE,121,3.0,8.0,73,0.00,,---,0.00,0.00,VWS V14.01,2013-09-23 05:46:00,
2013-09-23 00:51:00,59.8,51.1,29.79,ESE,106,1.0,3.0,73,0.00,,---,0.00,0.00,VWS V14.01,2013-09-23 05:51:00,
2013-09-23 00:56:00,59.6,51.0,29.79,SSE,151,0.0,2.0,73,0.00,,---,0.00,0.00,VWS V14.01,2013-09-23 05:56:00,
2013-09-23 01:01:00,59.5,50.8,29.79,ESE,110,5.0,5.0,73,0.00,,---,0.00,0.00,VWS V14.01,2013-09-23 06:01:00,
2013-09-23 01:06:00,59.5,50.8,29.79,ESE,102,2.0,3.0,73,0.00,,---,0.00,0.00,VWS V14.01,2013-09-23 06:06:00,
2013-09-23 01:11:00,59.5,50.8,29.79,ESE,110,3.0,4.0,73,0.00,,---,0.00,0.00,VWS V14.01,2013-09-23 06:11:00,
2013-09-23 01:16:00,59.3,50.7,29.80,ESE,113,3.0,6.0,73,0.00,,---,0.00,0.00,VWS V14.01,2013-09-23 06:16:00,
2013-09-23 01:21:00,59.3,50.7,29.80,SSE,164,0.0,2.0,73,0.00,,---,0.00,0.00,VWS V14.01,2013-09-23 06:21:00,
2013-09-23 01:26:00,59.3,50.7,29.80,ESE,114,6.0,8.0,73,0.00,,---,0.00,0.00,VWS V14.01,2013-09-23 06:26:00,
2013-09-23 01:31:00,59.2,50.6,29.80,SE,140,3.0,3.0,73,0.00,,---,0.00,0.00,VWS V14.01,2013-09-23 06:31:00,
2013-09-23 01:36:00,59.0,50.4,29.80,ESE,121,2.0,3.0,73,0.00,,---,0.00,0.00,VWS V14.01,2013-09-23 06:36:00,
2013-09-23 01:41:00,59.0,50.4,29.80,ENE,75,2.0,2.0,73,0.00,,---,0.00,0.00,VWS V14.01,2013-09-23 06:41:00,
2013-09-23 01:46:00,58.9,50.3,29.80,ESE,114,2.0,2.0,73,0.00,,---,0.00,0.00,VWS V14.01,2013-09-23 06:46:00,
2013-09-23 01:51:00,58.9,50.3,29.80,SE,137,3.0,3.0,73,0.00,,---,0.00,0.00,VWS V14.01,2013-09-23 06:51:00,
2013-09-23 01:56:00,58.7,50.1,29.80,ESE,114,5.0,5.0,73,0.00,,---,0.00,0.00,VWS V14.01,2013-09-23 06:56:00,
2013-09-23 02:01:00,58.7,50.1,29.81,SE,141,1.0,2.0,73,0.00,,---,0.00,0.00,VWS V14.01,2013-09-23 07:01:00,
2013-09-23 02:06:00,58.6,50.0,29.81,SE,145,2.0,6.0,73,0.00,,---,0.00,0.00,VWS V14.01,2013-09-23 07:06:00,
2013-09-23 02:11:00,58.6,50.0,29.81,SE,141,2.0,2.0,73,0.00,,---,0.00,0.00,VWS V14.01,2013-09-23 07:11:00,
2013-09-23 02:16:00,58.6,50.0,29.81,ESE,110,7.0,7.0,73,0.00,,---,0.00,0.00,VWS V14.01,2013-09-23 07:16:00,
2013-09-23 02:21:00,58.4,49.8,29.81,SE,130,1.0,3.0,73,0.00,,---,0.00,0.00,VWS V14.01,2013-09-23 07:21:00,
2013-09-23 02:26:00,58.4,49.8,29.81,South,174,5.0,8.0,73,0.00,,---,0.00,0.00,VWS V14.01,2013-09-23 07:26:00,
2013-09-23 02:31:00,58.4,49.4,29.81,ESE,120,1.0,3.0,72,0.00,,---,0.00,0.00,VWS V14.01,2013-09-23 07:31:00,
2013-09-23 02:36:00,58.4,49.4,29.81,SE,143,1.0,1.0,72,0.00,,---,0.00,0.00,VWS V14.01,2013-09-23 07:36:00,
2013-09-23 02:41:00,58.3,49.3,29.81,ESE,113,1.0,5.0,72,0.00,,---,0.00,0.00,VWS V14.01,2013-09-23 07:41:00,
2013-09-23 02:46:00,58.1,49.1,29.81,SE,136,1.0,2.0,72,0.00,,---,0.00,0.00,VWS V14.01,2013-09-23 07:46:00,
2013-09-23 02:51:00,58.1,49.1,29.81,ESE,114,7.0,8.0,72,0.00,,---,0.00,0.00,VWS V14.01,2013-09-23 07:51:00,
2013-09-23 02:56:00,58.1,49.1,29.81,SSE,148,5.0,5.0,72,0.00,,---,0.00,0.00,VWS V14.01,2013-09-23 07:56:00,
2013-09-23 03:01:00,58.1,48.8,29.81,East,100,6.0,6.0,71,0.00,,---,0.00,0.00,VWS V14.01,2013-09-23 08:01:00,
2013-09-23 03:06:00,58.1,48.8,29.81,East,90,6.0,6.0,71,0.00,,---,0.00,0.00,VWS V14.01,2013-09-23 08:06:00,
2013-09-23 03:11:00,58.0,48.7,29.81,ESE,103,2.0,2.0,71,0.00,,---,0.00,0.00,VWS V14.01,2013-09-23 08:11:00,
2013-09-23 03:16:00,58.0,49.0,29.81,ESE,110,5.0,5.0,72,0.00,,---,0.00,0.00,VWS V14.01,2013-09-23 08:16:00,
2013-09-23 03:21:00,57.8,48.8,29.81,SE,126,1.0,1.0,72,0.00,,---,0.00,0.00,VWS V14.01,2013-09-23 08:21:00,
2013-09-23 03:26:00,57.6,48.3,29.81,ESE,107,2.0,2.0,71,0.00,,---,0.00,0.00,VWS V14.01,2013-09-23 08:26:00,
2013-09-23 03:31:00,57.6,48.3,29.80,ESE,119,1.0,1.0,71,0.00,,---,0.00,0.00,VWS V14.01,2013-09-23 08:31:00,
2013-09-23 03:36:00,57.5,48.2,29.80,SE,136,3.0,4.0,71,0.00,,---,0.00,0.00,VWS V14.01,2013-09-23 08:36:00,
2013-09-23 03:41:00,57.5,48.2,29.80,ESE,112,3.0,3.0,71,0.00,,---,0.00,0.00,VWS V14.01,2013-09-23 08:41:00,
2013-09-23 03:46:00,57.5,48.2,29.80,East,88,2.0,7.0,71,0.00,,---,0.00,0.00,VWS V14.01,2013-09-23 08:46:00,
2013-09-23 03:51:00,57.5,48.2,29.80,ESE,109,8.0,8.0,71,0.00,,---,0.00,0.00,VWS V14.01,2013-09-23 08:51:00,
2013-09-23 03:56:00,57.3,48.0,29.80,SE,126,5.0,5.0,71,0.00,,---,0.00,0.00,VWS V14.01,2013-09-23 08:56:00,
2013-09-23 04:01:00,57.3,48.0,29.81,ESE,123,3.0,3.0,71,0.00,,---,0.00,0.00,VWS V14.01,2013-09-23 09:01:00,
2013-09-23 04:06:00,57.3,48.0,29.81,SE,124,7.0,7.0,71,0.00,,---,0.00,0.00,VWS V14.01,2013-09-23 09:06:00,
2013-09-23 04:11:00,57.3,48.0,29.81,East,85,7.0,7.0,71,0.00,,---,0.00,0.00,VWS V14.01,2013-09-23 09:11:00,
2013-09-23 04:16:00,57.3,47.6,29.81,SE,130,5.0,5.0,70,0.00,,---,0.00,0.00,VWS V14.01,2013-09-23 09:16:00,
2013-09-23 04:21:00,57.2,47.5,29.81,SE,133,4.0,4.0,70,0.00,,---,0.00,0.00,VWS V14.01,2013-09-23 09:21:00,
2013-09-23 04:26:00,57.2,47.5,29.81,SE,131,2.0,3.0,70,0.00,,---,0.00,0.00,VWS V14.01,2013-09-23 09:26:00,
2013-09-23 04:31:00,57.0,47.3,29.81,ESE,116,3.0,4.0,70,0.00,,---,0.00,0.00,VWS V14.01,2013-09-23 09:31:00,
2013-09-23 04:36:00,57.0,47.3,29.81,SSE,150,1.0,1.0,70,0.00,,---,0.00,0.00,VWS V14.01,2013-09-23 09:36:00,
2013-09-23 04:41:00,57.0,47.7,29.81,SE,124,2.0,2.0,71,0.00,,---,0.00,0.00,VWS V14.01,2013-09-23 09:41:00,
2013-09-23 04:46:00,56.7,47.4,29.81,SSE,150,2.0,2.0,71,0.00,,---,0.00,0.00,VWS V14.01,2013-09-23 09:46:00,
2013-09-23 04:51:00,56.5,47.6,29.81,SE,124,6.0,6.0,72,0.00,,---,0.00,0.00,VWS V14.01,2013-09-23 09:51:00,
2013-09-23 04:56:00,56.5,47.6,29.81,East,97,3.0,3.0,72,0.00,,---,0.00,0.00,VWS V14.01,2013-09-23 09:56:00,
2013-09-23 05:01:00,56.3,47.4,29.80,South,175,3.0,3.0,72,0.00,,---,0.00,0.00,VWS V14.01,2013-09-23 10:01:00,
2013-09-23 05:06:00,56.2,47.7,29.80,East,99,0.0,0.0,73,0.00,,---,0.00,0.00,VWS V14.01,2013-09-23 10:06:00,
2013-09-23 05:11:00,56.0,47.5,29.80,East,92,3.0,3.0,73,0.00,,---,0.00,0.00,VWS V14.01,2013-09-23 10:11:00,
2013-09-23 05:16:00,55.9,47.4,29.80,East,96,3.0,3.0,73,0.00,,---,0.00,0.00,VWS V14.01,2013-09-23 10:16:00,
2013-09-23 05:21:00,55.7,47.2,29.80,ESE,120,1.0,3.0,73,0.00,,---,0.00,0.00,VWS V14.01,2013-09-23 10:21:00,
2013-09-23 05:26:00,55.6,47.5,29.80,SSE,150,3.0,5.0,74,0.00,,---,0.00,0.00,VWS V14.01,2013-09-23 10:26:00,
2013-09-23 05:31:00,55.6,47.1,29.81,SSE,155,1.0,2.0,73,0.00,,---,0.00,0.00,VWS V14.01,2013-09-23 10:31:00,
2013-09-23 05:36:00,55.7,47.2,29.81,SE,128,0.0,3.0,73,0.00,,---,0.00,0.00,VWS V14.01,2013-09-23 10:36:00,
2013-09-23 05:41:00,55.7,47.2,29.81,SSE,168,2.0,3.0,73,0.00,,---,0.00,0.00,VWS V14.01,2013-09-23 10:41:00,
2013-09-23 05:46:00,55.9,47.4,29.82,ESE,113,3.0,3.0,73,0.00,,---,0.00,0.00,VWS V14.01,2013-09-23 10:46:00,
2013-09-23 05:51:00,56.0,47.1,29.82,ESE,117,2.0,3.0,72,0.00,,---,0.00,0.00,VWS V14.01,2013-09-23 10:51:00,
2013-09-23 05:56:00,56.0,47.1,29.82,ESE,102,7.0,7.0,72,0.00,,---,0.00,0.00,VWS V14.01,2013-09-23 10:56:00,
2013-09-23 06:01:00,56.0,47.1,29.82,ESE,121,3.0,3.0,72,0.00,,---,0.00,0.00,VWS V14.01,2013-09-23 11:01:00,
2013-09-23 06:06:00,55.9,47.0,29.82,East,97,3.0,3.0,72,0.00,,---,0.00,0.00,VWS V14.01,2013-09-23 11:06:00,
2013-09-23 06:11:00,55.9,47.4,29.82,East,92,3.0,3.0,73,0.00,,---,0.00,0.00,VWS V14.01,2013-09-23 11:11:00,
2013-09-23 06:16:00,55.7,47.2,29.82,ESE,119,2.0,5.0,73,0.00,,---,0.00,0.00,VWS V14.01,2013-09-23 11:16:00,
2013-09-23 06:21:00,55.7,47.2,29.82,South,175,0.0,0.0,73,0.00,,---,0.00,0.00,VWS V14.01,2013-09-23 11:21:00,
2013-09-23 06:26:00,55.6,47.1,29.82,East,96,3.0,3.0,73,0.00,,---,0.00,0.00,VWS V14.01,2013-09-23 11:26:00,
2013-09-23 06:31:00,55.6,47.1,29.83,SE,137,7.0,7.0,73,0.00,,---,0.00,0.00,VWS V14.01,2013-09-23 11:31:00,
2013-09-23 06:36:00,55.4,47.3,29.83,East,93,2.0,2.0,74,0.00,,---,0.00,0.00,VWS V14.01,2013-09-23 11:36:00,
2013-09-23 06:41:00,55.3,47.2,29.83,ESE,121,1.0,1.0,74,0.00,,---,0.00,0.00,VWS V14.01,2013-09-23 11:41:00,
2013-09-23 06:46:00,55.1,47.0,29.83,ESE,109,3.0,3.0,74,0.00,,---,0.00,0.00,VWS V14.01,2013-09-23 11:46:00,
2013-09-23 06:51:00,55.1,47.3,29.83,ESE,110,3.0,3.0,75,0.00,,---,0.00,0.00,VWS V14.01,2013-09-23 11:51:00,
2013-09-23 06:56:00,55.1,47.3,29.83,ESE,102,2.0,2.0,75,0.00,,---,0.00,0.00,VWS V14.01,2013-09-23 11:56:00,
2013-09-23 07:01:00,55.0,47.2,29.84,ESE,123,1.0,2.0,75,0.00,,---,0.00,0.00,VWS V14.01,2013-09-23 12:01:00,
2013-09-23 07:06:00,54.8,47.0,29.84,SE,126,2.0,5.0,75,0.00,,---,0.00,0.00,VWS V14.01,2013-09-23 12:06:00,
2013-09-23 07:11:00,54.8,47.4,29.84,ESE,106,2.0,2.0,76,0.00,,---,0.00,0.00,VWS V14.01,2013-09-23 12:11:00,
2013-09-23 07:16:00,54.8,47.4,29.84,SE,143,0.0,0.0,76,0.00,,---,0.00,5.00,VWS V14.01,2013-09-23 12:16:00,
2013-09-23 07:21:00,54.7,47.6,29.84,SE,128,6.0,7.0,77,0.00,,---,0.00,7.00,VWS V14.01,2013-09-23 12:21:00,
2013-09-23 07:26:00,54.8,47.7,29.84,ESE,102,3.0,3.0,77,0.00,,---,0.00,11.00,VWS V14.01,2013-09-23 12:26:00,
2013-09-23 07:31:00,54.7,47.6,29.85,ESE,103,3.0,3.0,77,0.00,,---,0.00,12.00,VWS V14.01,2013-09-23 12:31:00,
2013-09-23 07:36:00,54.7,47.6,29.85,ESE,110,3.0,7.0,77,0.00,,---,0.00,12.00,VWS V14.01,2013-09-23 12:36:00,
2013-09-23 07:41:00,54.7,48.0,29.85,SE,124,4.0,4.0,78,0.00,,---,0.00,18.00,VWS V14.01,2013-09-23 12:41:00,
2013-09-23 07:46:00,54.7,48.0,29.84,ESE,112,5.0,5.0,78,0.00,,---,0.00,19.00,VWS V14.01,2013-09-23 12:46:00,
2013-09-23 07:51:00,54.7,48.0,29.84,ESE,102,5.0,5.0,78,0.00,,---,0.00,23.00,VWS V14.01,2013-09-23 12:51:00,
2013-09-23 07:56:00,54.8,48.1,29.84,SE,124,3.0,3.0,78,0.00,,---,0.00,25.00,VWS V14.01,2013-09-23 12:56:00,
2013-09-23 08:01:00,55.0,48.3,29.84,SSE,154,6.0,7.0,78,0.00,,---,0.00,30.00,VWS V14.01,2013-09-23 13:01:00,
2013-09-23 08:06:00,55.1,48.4,29.84,ESE,119,3.0,3.0,78,0.00,,---,0.00,30.00,VWS V14.01,2013-09-23 13:06:00,
2013-09-23 08:11:00,55.1,48.4,29.84,East,89,5.0,5.0,78,0.00,,---,0.00,37.00,VWS V14.01,2013-09-23 13:11:00,
2013-09-23 08:16:00,55.1,48.4,29.84,South,179,0.0,3.0,78,0.00,,---,0.00,40.00,VWS V14.01,2013-09-23 13:16:00,
2013-09-23 08:21:00,55.1,48.0,29.84,SSE,151,5.0,5.0,77,0.00,,---,0.00,167.00,VWS V14.01,2013-09-23 13:21:00,
2013-09-23 08:26:00,55.4,48.3,29.84,SE,130,1.0,2.0,77,0.00,,---,0.00,223.00,VWS V14.01,2013-09-23 13:26:00,
2013-09-23 08:31:00,55.6,48.2,29.85,ESE,123,7.0,7.0,76,0.00,,---,0.00,239.00,VWS V14.01,2013-09-23 13:31:00,
2013-09-23 08:36:00,55.7,48.3,29.85,SSE,167,5.0,5.0,76,0.00,,---,0.00,248.00,VWS V14.01,2013-09-23 13:36:00,
2013-09-23 08:41:00,56.2,48.0,29.85,SE,127,3.0,3.0,74,0.00,,---,0.00,248.00,VWS V14.01,2013-09-23 13:41:00,
2013-09-23 08:45:00,56.6,48.4,29.85,East,99,5.0,10.0,74,0.00,,---,0.00,274.00,VWS V14.01,2013-09-23 13:45:00,
2013-09-23 08:50:00,56.9,48.7,29.85,East,100,6.0,6.0,74,0.00,,---,0.00,299.00,VWS V14.01,2013-09-23 13:50:00,
2013-09-23 08:55:00,57.3,48.0,29.85,ESE,104,6.0,6.0,71,0.00,,---,0.00,294.00,VWS V14.01,2013-09-23 13:55:00,
2013-09-23 09:00:00,57.6,47.9,29.85,South,191,5.0,5.0,70,0.00,,---,0.00,301.00,VWS V14.01,2013-09-23 14:00:00,
2013-09-23 09:05:00,58.1,48.4,29.85,SE,131,6.0,6.0,70,0.00,,---,0.00,301.00,VWS V14.01,2013-09-23 14:05:00,
2013-09-23 09:10:00,58.3,48.6,29.85,SSE,154,0.0,3.0,70,0.00,,---,0.00,327.00,VWS V14.01,2013-09-23 14:10:00,
2013-09-23 09:15:00,58.9,48.4,29.85,ESE,112,3.0,3.0,68,0.00,,---,0.00,375.00,VWS V14.01,2013-09-23 14:15:00,
2013-09-23 09:20:00,59.0,48.1,29.85,SE,127,7.0,7.0,67,0.00,,---,0.00,377.00,VWS V14.01,2013-09-23 14:20:00,
2013-09-23 09:25:00,59.0,48.1,29.85,South,182,1.0,9.0,67,0.00,,---,0.00,403.00,VWS V14.01,2013-09-23 14:25:00,
2013-09-23 09:30:00,59.6,48.6,29.85,SSE,147,6.0,6.0,67,0.00,,---,0.00,424.00,VWS V14.01,2013-09-23 14:30:00,
2013-09-23 09:35:00,59.8,48.8,29.85,South,175,5.0,7.0,67,0.00,,---,0.00,424.00,VWS V14.01,2013-09-23 14:35:00,
2013-09-23 09:40:00,59.9,48.5,29.85,SE,140,3.0,3.0,66,0.00,,---,0.00,447.00,VWS V14.01,2013-09-23 14:40:00,
2013-09-23 09:45:00,60.2,48.8,29.85,SE,128,7.0,8.0,66,0.00,,---,0.00,452.00,VWS V14.01,2013-09-23 14:45:00,
2013-09-23 09:50:00,60.2,48.8,29.85,East,83,5.0,6.0,66,0.00,,---,0.00,428.00,VWS V14.01,2013-09-23 14:50:00,
2013-09-23 09:55:00,60.4,48.6,29.85,East,99,1.0,5.0,65,0.00,,---,0.00,493.00,VWS V14.01,2013-09-23 14:55:00,
2013-09-23 10:00:00,60.9,49.1,29.85,SSE,152,3.0,4.0,65,0.00,,---,0.00,473.00,VWS V14.01,2013-09-23 15:00:00,
2013-09-23 10:05:00,61.2,49.3,29.85,ESE,110,6.0,7.0,65,0.00,,---,0.00,479.00,VWS V14.01,2013-09-23 15:05:00,
2013-09-23 10:10:00,61.2,49.3,29.85,SE,130,8.0,8.0,65,0.00,,---,0.00,494.00,VWS V14.01,2013-09-23 15:10:00,
2013-09-23 10:15:00,61.0,48.8,29.85,SSE,158,6.0,12.0,64,0.00,,---,0.00,382.00,VWS V14.01,2013-09-23 15:15:00,
2013-09-23 10:20:00,60.9,48.7,29.85,ESE,110,3.0,7.0,64,0.00,,---,0.00,568.00,VWS V14.01,2013-09-23 15:20:00,
2013-09-23 10:25:00,61.5,49.6,29.85,ESE,106,3.0,11.0,65,0.00,,---,0.00,579.00,VWS V14.01,2013-09-23 15:25:00,
2013-09-23 10:30:00,61.6,49.3,29.85,East,97,5.0,5.0,64,0.00,,---,0.00,510.00,VWS V14.01,2013-09-23 15:30:00,
2013-09-23 10:35:00,62.0,49.7,29.85,SSE,150,3.0,7.0,64,0.00,,---,0.00,470.00,VWS V14.01,2013-09-23 15:35:00,
2013-09-23 10:40:00,62.4,49.7,29.85,SSE,162,1.0,7.0,63,0.00,,---,0.00,470.00,VWS V14.01,2013-09-23 15:40:00,
2013-09-23 10:45:00,62.9,50.1,29.85,ESE,107,6.0,6.0,63,0.00,,---,0.00,567.00,VWS V14.01,2013-09-23 15:45:00,
2013-09-23 10:50:00,62.9,49.3,29.85,East,82,2.0,14.0,61,0.00,,---,0.00,493.00,VWS V14.01,2013-09-23 15:50:00,
2013-09-23 10:55:00,63.1,50.3,29.85,ESE,117,2.0,4.0,63,0.00,,---,0.00,493.00,VWS V14.01,2013-09-23 15:55:00,
2013-09-23 11:00:00,63.5,50.3,29.85,SSE,150,6.0,6.0,62,0.00,,---,0.00,646.00,VWS V14.01,2013-09-23 16:00:00,
2013-09-23 11:05:00,64.0,50.7,29.85,ESE,120,7.0,7.0,62,0.00,,---,0.00,595.00,VWS V14.01,2013-09-23 16:05:00,
2013-09-23 11:10:00,63.9,49.8,29.85,ESE,113,8.0,8.0,60,0.00,,---,0.00,655.00,VWS V14.01,2013-09-23 16:10:00,
2013-09-23 11:15:00,64.3,50.6,29.85,SSE,157,1.0,4.0,61,0.00,,---,0.00,653.00,VWS V14.01,2013-09-23 16:15:00,
2013-09-23 11:20:00,64.5,50.8,29.85,ESE,103,8.0,8.0,61,0.00,,---,0.00,653.00,VWS V14.01,2013-09-23 16:20:00,
2013-09-23 11:25:00,64.8,51.0,29.85,SE,137,5.0,5.0,61,0.00,,---,0.00,653.00,VWS V14.01,2013-09-23 16:25:00,
2013-09-23 11:30:00,65.3,51.5,29.84,SE,143,1.0,11.0,61,0.00,,---,0.00,674.00,VWS V14.01,2013-09-23 16:30:00,
2013-09-23 11:35:00,65.3,50.6,29.84,East,99,8.0,8.0,59,0.00,,---,0.00,662.00,VWS V14.01,2013-09-23 16:35:00,
2013-09-23 11:40:00,65.5,50.8,29.84,ESE,103,5.0,5.0,59,0.00,,---,0.00,648.00,VWS V14.01,2013-09-23 16:40:00,
2013-09-23 11:45:00,65.6,50.9,29.83,ESE,117,1.0,6.0,59,0.00,,---,0.00,648.00,VWS V14.01,2013-09-23 16:45:00,
2013-09-23 11:50:00,65.8,51.1,29.83,SSE,154,5.0,10.0,59,0.00,,---,0.00,688.00,VWS V14.01,2013-09-23 16:50:00,
2013-09-23 11:55:00,66.1,50.9,29.83,ESE,121,4.0,6.0,58,0.00,,---,0.00,690.00,VWS V14.01,2013-09-23 16:55:00,
2013-09-23 12:00:00,66.8,52.0,29.83,East,86,11.0,17.0,59,0.00,,---,0.00,663.00,VWS V14.01,2013-09-23 17:00:00,
2013-09-23 12:05:00,66.4,51.7,29.83,ESE,104,10.0,10.0,59,0.00,,---,0.00,505.00,VWS V14.01,2013-09-23 17:05:00,
2013-09-23 12:10:00,66.4,51.7,29.83,East,100,5.0,5.0,59,0.00,,---,0.00,505.00,VWS V14.01,2013-09-23 17:10:00,
2013-09-23 12:15:00,66.8,51.6,29.82,East,100,5.0,11.0,58,0.00,,---,0.00,739.00,VWS V14.01,2013-09-23 17:15:00,
2013-09-23 12:20:00,67.4,51.7,29.82,East,96,6.0,6.0,57,0.00,,---,0.00,757.00,VWS V14.01,2013-09-23 17:20:00,
2013-09-23 12:25:00,67.8,52.0,29.82,East,85,3.0,8.0,57,0.00,,---,0.00,757.00,VWS V14.01,2013-09-23 17:25:00,
2013-09-23 12:30:00,67.9,51.6,29.82,East,95,11.0,12.0,56,0.00,,---,0.00,602.00,VWS V14.01,2013-09-23 17:30:00,
2013-09-23 12:35:00,67.8,51.5,29.82,East,97,13.0,13.0,56,0.00,,---,0.00,602.00,VWS V14.01,2013-09-23 17:35:00,
2013-09-23 12:40:00,67.9,51.6,29.82,SE,131,11.0,12.0,56,0.00,,---,0.00,662.00,VWS V14.01,2013-09-23 17:40:00,
2013-09-23 12:45:00,68.1,52.3,29.81,SE,145,10.0,11.0,57,0.00,,---,0.00,600.00,VWS V14.01,2013-09-23 17:45:00,
2013-09-23 12:50:00,68.1,51.8,29.81,ESE,102,7.0,8.0,56,0.00,,---,0.00,600.00,VWS V14.01,2013-09-23 17:50:00,
2013-09-23 12:55:00,68.6,52.3,29.81,SSE,151,0.0,2.0,56,0.00,,---,0.00,684.00,VWS V14.01,2013-09-23 17:55:00,
2013-09-23 13:00:00,69.3,52.0,29.81,SE,143,5.0,13.0,54,0.00,,---,0.00,648.00,VWS V14.01,2013-09-23 18:00:00,
2013-09-23 13:05:00,68.8,51.5,29.81,West,261,3.0,8.0,54,0.00,,---,0.00,433.00,VWS V14.01,2013-09-23 18:05:00,
2013-09-23 13:10:00,68.9,51.6,29.81,SSE,148,3.0,4.0,54,0.00,,---,0.00,589.00,VWS V14.01,2013-09-23 18:10:00,
2013-09-23 13:15:00,69.1,51.8,29.81,East,100,4.0,8.0,54,0.00,,---,0.00,630.00,VWS V14.01,2013-09-23 18:15:00,
2013-09-23 13:20:00,69.4,51.5,29.81,East,100,5.0,6.0,53,0.00,,---,0.00,630.00,VWS V14.01,2013-09-23 18:20:00,
2013-09-23 13:25:00,69.6,51.2,29.81,SE,126,13.0,13.0,52,0.00,,---,0.00,646.00,VWS V14.01,2013-09-23 18:25:00,
2013-09-23 13:30:00,69.9,51.5,29.80,ESE,109,11.0,13.0,52,0.00,,---,0.00,677.00,VWS V14.01,2013-09-23 18:30:00,
2013-09-23 13:35:00,69.6,51.7,29.80,East,99,6.0,6.0,53,0.00,,---,0.00,648.00,VWS V14.01,2013-09-23 18:35:00,
2013-09-23 13:40:00,69.9,51.0,29.80,SE,124,4.0,10.0,51,0.00,,---,0.00,690.00,VWS V14.01,2013-09-23 18:40:00,
2013-09-23 13:45:00,70.3,51.3,29.80,SSW,208,13.0,13.0,51,0.00,,---,0.00,596.00,VWS V14.01,2013-09-23 18:45:00,
2013-09-23 13:50:00,70.6,51.6,29.80,SSW,195,1.0,3.0,51,0.00,,---,0.00,596.00,VWS V14.01,2013-09-23 18:50:00,
2013-09-23 13:55:00,70.9,51.9,29.80,ESE,116,8.0,8.0,51,0.00,,---,0.00,538.00,VWS V14.01,2013-09-23 18:55:00,
2013-09-23 14:00:00,70.8,51.3,29.80,WSW,237,4.0,6.0,50,0.00,,---,0.00,537.00,VWS V14.01,2013-09-23 19:00:00,
2013-09-23 14:05:00,70.8,51.3,29.80,East,85,7.0,7.0,50,0.00,,---,0.00,537.00,VWS V14.01,2013-09-23 19:05:00,
2013-09-23 14:10:00,70.9,50.8,29.80,SSW,205,6.0,8.0,49,0.00,,---,0.00,99.00,VWS V14.01,2013-09-23 19:10:00,
2013-09-23 14:15:00,70.8,51.8,29.79,SE,133,3.0,11.0,51,0.00,,---,0.00,91.00,VWS V14.01,2013-09-23 19:15:00,
2013-09-23 14:20:00,70.6,51.6,29.79,SE,130,7.0,8.0,51,0.00,,---,0.00,93.00,VWS V14.01,2013-09-23 19:20:00,
2013-09-23 14:25:00,70.4,51.4,29.79,SSW,195,5.0,11.0,51,0.00,,---,0.00,100.00,VWS V14.01,2013-09-23 19:25:00,
2013-09-23 14:30:00,70.6,51.1,29.78,ESE,104,9.0,9.0,50,0.00,,---,0.00,107.00,VWS V14.01,2013-09-23 19:30:00,
2013-09-23 14:35:00,70.6,51.6,29.78,East,95,11.0,11.0,51,0.00,,---,0.00,106.00,VWS V14.01,2013-09-23 19:35:00,
2013-09-23 14:40:00,70.9,52.4,29.78,South,189,3.0,3.0,52,0.00,,---,0.00,106.00,VWS V14.01,2013-09-23 19:40:00,
2013-09-23 14:45:00,71.1,51.0,29.78,SSE,155,1.0,2.0,49,0.00,,---,0.00,76.00,VWS V14.01,2013-09-23 19:45:00,
2013-09-23 14:50:00,71.5,51.4,29.78,East,85,6.0,6.0,49,0.00,,---,0.00,74.00,VWS V14.01,2013-09-23 19:50:00,
2013-09-23 14:55:00,71.6,52.0,29.78,East,96,2.0,2.0,50,0.00,,---,0.00,65.00,VWS V14.01,2013-09-23 19:55:00,
2013-09-23 15:00:00,71.8,51.1,29.78,SE,126,14.0,14.0,48,0.00,,---,0.00,62.00,VWS V14.01,2013-09-23 20:00:00,
2013-09-23 15:05:00,71.8,51.1,29.78,SE,131,5.0,5.0,48,0.00,,---,0.00,51.00,VWS V14.01,2013-09-23 20:05:00,
2013-09-23 15:10:00,71.8,50.5,29.78,SE,137,4.0,7.0,47,0.00,,---,0.00,46.00,VWS V14.01,2013-09-23 20:10:00,
2013-09-23 15:15:00,71.8,50.5,29.78,SE,134,5.0,7.0,47,0.00,,---,0.00,46.00,VWS V14.01,2013-09-23 20:15:00,
2013-09-23 15:20:00,71.8,51.6,29.78,ESE,119,8.0,8.0,49,0.00,,---,0.00,46.00,VWS V14.01,2013-09-23 20:20:00,
2013-09-23 15:25:00,71.6,50.3,29.78,ESE,112,5.0,5.0,47,0.00,,---,0.00,44.00,VWS V14.01,2013-09-23 20:25:00,
2013-09-23 15:30:00,71.8,51.1,29.78,ESE,112,3.0,6.0,48,0.00,,---,0.00,44.00,VWS V14.01,2013-09-23 20:30:00,
2013-09-23 15:35:00,72.0,50.7,29.78,ESE,106,5.0,6.0,47,0.00,,---,0.00,46.00,VWS V14.01,2013-09-23 20:35:00,
2013-09-23 15:40:00,72.1,50.2,29.78,SSE,165,6.0,8.0,46,0.00,,---,0.00,48.00,VWS V14.01,2013-09-23 20:40:00,
2013-09-23 15:45:00,72.3,50.4,29.77,SE,140,5.0,5.0,46,0.00,,---,0.00,72.00,VWS V14.01,2013-09-23 20:45:00,
2013-09-23 15:50:00,72.1,50.2,29.77,ESE,117,4.0,7.0,46,0.00,,---,0.00,255.00,VWS V14.01,2013-09-23 20:50:00,
2013-09-23 15:55:00,72.0,50.1,29.77,East,86,2.0,3.0,46,0.00,,---,0.00,243.00,VWS V14.01,2013-09-23 20:55:00,
2013-09-23 16:00:00,71.8,49.9,29.77,East,92,3.0,3.0,46,0.00,,---,0.00,243.00,VWS V14.01,2013-09-23 21:00:00,
2013-09-23 16:05:00,71.8,49.9,29.77,SSE,161,5.0,6.0,46,0.00,,---,0.00,394.00,VWS V14.01,2013-09-23 21:05:00,
2013-09-23 16:10:00,71.8,50.5,29.77,SE,140,3.0,3.0,47,0.00,,---,0.00,394.00,VWS V14.01,2013-09-23 21:10:00,
2013-09-23 16:15:00,72.0,50.7,29.77,East,93,11.0,13.0,47,0.00,,---,0.00,514.00,VWS V14.01,2013-09-23 21:15:00,
2013-09-23 16:20:00,71.6,49.8,29.77,ESE,119,3.0,6.0,46,0.00,,---,0.00,385.00,VWS V14.01,2013-09-23 21:20:00,
2013-09-23 16:25:00,71.6,49.8,29.77,SE,143,2.0,3.0,46,0.00,,---,0.00,350.00,VWS V14.01,2013-09-23 21:25:00,
2013-09-23 16:30:00,71.6,50.9,29.77,ESE,113,4.0,5.0,48,0.00,,---,0.00,350.00,VWS V14.01,2013-09-23 21:30:00,
2013-09-23 16:35:00,71.5,50.2,29.77,ESE,117,2.0,2.0,47,0.00,,---,0.00,357.00,VWS V14.01,2013-09-23 21:35:00,
2013-09-23 16:40:00,71.6,50.3,29.77,East,95,6.0,7.0,47,0.00,,---,0.00,304.00,VWS V14.01,2013-09-23 21:40:00,
2013-09-23 16:45:00,71.5,50.2,29.77,SSE,152,5.0,5.0,47,0.00,,---,0.00,343.00,VWS V14.01,2013-09-23 21:45:00,
2013-09-23 16:50:00,71.3,50.6,29.77,ESE,110,5.0,10.0,48,0.00,,---,0.00,343.00,VWS V14.01,2013-09-23 21:50:00,
2013-09-23 16:55:00,71.3,51.2,29.77,ESE,119,6.0,6.0,49,0.00,,---,0.00,343.00,VWS V14.01,2013-09-23 21:55:00,
2013-09-23 17:00:00,70.9,50.2,29.77,ESE,112,5.0,5.0,48,0.00,,---,0.00,155.00,VWS V14.01,2013-09-23 22:00:00,
2013-09-23 17:05:00,70.8,50.7,29.77,SE,128,4.0,4.0,49,0.00,,---,0.00,155.00,VWS V14.01,2013-09-23 22:05:00,
2013-09-23 17:10:00,70.8,50.7,29.77,East,97,7.0,7.0,49,0.00,,---,0.00,72.00,VWS V14.01,2013-09-23 22:10:00,
2013-09-23 17:15:00,70.6,51.6,29.77,East,99,8.0,8.0,51,0.00,,---,0.00,76.00,VWS V14.01,2013-09-23 22:15:00,
2013-09-23 17:20:00,70.4,51.4,29.77,SE,144,0.0,5.0,51,0.00,,---,0.00,76.00,VWS V14.01,2013-09-23 22:20:00,
2013-09-23 17:25:00,70.4,51.4,29.77,SE,131,5.0,5.0,51,0.00,,---,0.00,81.00,VWS V14.01,2013-09-23 22:25:00,
2013-09-23 17:30:00,70.4,51.4,29.77,SE,127,6.0,6.0,51,0.00,,---,0.00,109.00,VWS V14.01,2013-09-23 22:30:00,
2013-09-23 17:35:00,70.4,50.3,29.77,ESE,110,7.0,7.0,49,0.00,,---,0.00,74.00,VWS V14.01,2013-09-23 22:35:00,
2013-09-23 17:40:00,70.3,50.8,29.77,East,96,7.0,7.0,50,0.00,,---,0.00,81.00,VWS V14.01,2013-09-23 22:40:00,
2013-09-23 17:45:00,70.3,50.8,29.78,SSE,168,11.0,11.0,50,0.00,,---,0.00,48.00,VWS V14.01,2013-09-23 22:45:00,
2013-09-23 17:50:00,70.1,51.2,29.78,ESE,106,10.0,10.0,51,0.00,,---,0.00,48.00,VWS V14.01,2013-09-23 22:50:00,
2013-09-23 17:55:00,69.9,50.4,29.78,SE,126,6.0,6.0,50,0.00,,---,0.00,55.00,VWS V14.01,2013-09-23 22:55:00,
2013-09-23 18:00:00,69.8,50.9,29.78,SE,130,5.0,6.0,51,0.00,,---,0.00,55.00,VWS V14.01,2013-09-23 23:00:00,
2013-09-23 18:05:00,69.6,50.7,29.78,SE,124,2.0,2.0,51,0.00,,---,0.00,32.00,VWS V14.01,2013-09-23 23:05:00,
2013-09-23 18:10:00,69.6,50.7,29.78,SE,124,2.0,6.0,51,0.00,,---,0.00,28.00,VWS V14.01,2013-09-23 23:10:00,
2013-09-23 18:15:00,69.4,51.0,29.78,ESE,110,10.0,10.0,52,0.00,,---,0.00,23.00,VWS V14.01,2013-09-23 23:15:00,
2013-09-23 18:20:00,69.1,50.8,29.78,East,93,5.0,5.0,52,0.00,,---,0.00,21.00,VWS V14.01,2013-09-23 23:20:00,
2013-09-23 18:25:00,68.9,51.1,29.78,East,93,6.0,6.0,53,0.00,,---,0.00,19.00,VWS V14.01,2013-09-23 23:25:00,
2013-09-23 18:30:00,68.8,51.0,29.78,ESE,107,4.0,7.0,53,0.00,,---,0.00,18.00,VWS V14.01,2013-09-23 23:30:00,
2013-09-23 18:35:00,68.6,50.8,29.78,SE,145,5.0,5.0,53,0.00,,---,0.00,18.00,VWS V14.01,2013-09-23 23:35:00,
2013-09-23 18:40:00,68.4,50.6,29.78,ESE,116,5.0,5.0,53,0.00,,---,0.00,16.00,VWS V14.01,2013-09-23 23:40:00,
2013-09-23 18:45:00,68.3,51.0,29.79,ESE,109,6.0,7.0,54,0.00,,---,0.00,16.00,VWS V14.01,2013-09-23 23:45:00,
2013-09-23 18:50:00,68.1,50.8,29.79,SE,133,11.0,11.0,54,0.00,,---,0.00,12.00,VWS V14.01,2013-09-23 23:50:00,
2013-09-23 18:55:00,67.9,50.7,29.79,ESE,121,4.0,4.0,54,0.00,,---,0.00,9.00,VWS V14.01,2013-09-23 23:55:00,
2013-09-23 19:00:00,67.8,50.6,29.79,ESE,112,5.0,5.0,54,0.00,,---,0.00,5.00,VWS V14.01,2013-09-24 00:00:00,
2013-09-23 19:05:00,67.4,50.7,29.79,East,99,3.0,3.0,55,0.00,,---,0.00,0.00,VWS V14.01,2013-09-24 00:05:00,
2013-09-23 19:10:00,67.3,50.6,29.79,ESE,112,9.0,9.0,55,0.00,,---,0.00,0.00,VWS V14.01,2013-09-24 00:10:00,
2013-09-23 19:15:00,67.1,50.4,29.79,ESE,112,8.0,8.0,55,0.00,,---,0.00,0.00,VWS V14.01,2013-09-24 00:15:00,
2013-09-23 19:20:00,66.9,50.7,29.79,ESE,119,5.0,9.0,56,0.00,,---,0.00,0.00,VWS V14.01,2013-09-24 00:20:00,
2013-09-23 19:25:00,66.8,50.6,29.79,East,95,3.0,6.0,56,0.00,,---,0.00,0.00,VWS V14.01,2013-09-24 00:25:00,
2013-09-23 19:30:00,66.6,50.4,29.79,ESE,106,6.0,7.0,56,0.00,,---,0.00,0.00,VWS V14.01,2013-09-24 00:30:00,
2013-09-23 19:34:00,66.4,50.7,29.79,ESE,123,6.0,6.0,57,0.00,,---,0.00,0.00,VWS V14.01,2013-09-24 00:34:00,
2013-09-23 19:39:00,66.3,50.2,29.79,SE,130,5.0,6.0,56,0.00,,---,0.00,0.00,VWS V14.01,2013-09-24 00:39:00,
2013-09-23 19:44:00,66.1,50.4,29.79,SE,127,6.0,7.0,57,0.00,,---,0.00,0.00,VWS V14.01,2013-09-24 00:44:00,
2013-09-23 19:49:00,66.1,50.4,29.80,East,96,6.0,6.0,57,0.00,,---,0.00,0.00,VWS V14.01,2013-09-24 00:49:00,
2013-09-23 19:55:00,66.0,50.3,29.80,ESE,107,5.0,6.0,57,0.00,,---,0.00,0.00,VWS V14.01,2013-09-24 00:55:00,
2013-09-23 20:00:00,65.6,50.0,29.80,SSE,152,2.0,3.0,57,0.00,,---,0.00,0.00,VWS V14.01,2013-09-24 01:00:00,
2013-09-23 20:05:00,65.5,49.9,29.80,ESE,104,5.0,5.0,57,0.00,,---,0.00,0.00,VWS V14.01,2013-09-24 01:05:00,
2013-09-23 20:10:00,65.3,49.7,29.80,ESE,104,5.0,5.0,57,0.00,,---,0.00,0.00,VWS V14.01,2013-09-24 01:10:00,
2013-09-23 20:15:00,65.0,49.4,29.80,SE,144,5.0,5.0,57,0.00,,---,0.00,0.00,VWS V14.01,2013-09-24 01:15:00,
2013-09-23 20:20:00,64.7,49.1,29.80,East,97,5.0,6.0,57,0.00,,---,0.00,0.00,VWS V14.01,2013-09-24 01:20:00,
2013-09-23 20:25:00,64.5,49.0,29.80,ESE,102,3.0,3.0,57,0.00,,---,0.00,0.00,VWS V14.01,2013-09-24 01:25:00,
2013-09-23 20:30:00,64.3,48.8,29.81,ESE,123,6.0,6.0,57,0.00,,---,0.00,0.00,VWS V14.01,2013-09-24 01:30:00,
2013-09-23 20:35:00,64.2,48.7,29.81,East,96,4.0,5.0,57,0.00,,---,0.00,0.00,VWS V14.01,2013-09-24 01:35:00,
2013-09-23 20:40:00,64.2,51.4,29.81,ESE,123,3.0,5.0,63,0.00,,---,0.00,0.00,VWS V14.01,2013-09-24 01:40:00,
2013-09-23 20:45:00,64.0,51.6,29.81,ESE,112,5.0,6.0,64,0.00,,---,0.00,0.00,VWS V14.01,2013-09-24 01:45:00,
2013-09-23 20:50:00,63.9,51.5,29.81,SE,141,3.0,3.0,64,0.00,,---,0.00,0.00,VWS V14.01,2013-09-24 01:50:00,
2013-09-23 20:55:00,63.7,51.3,29.81,ESE,102,3.0,3.0,64,0.00,,---,0.00,0.00,VWS V14.01,2013-09-24 01:55:00,
2013-09-23 21:00:00,63.5,51.1,29.82,ESE,120,2.0,3.0,64,0.00,,---,0.00,0.00,VWS V14.01,2013-09-24 02:00:00,
2013-09-23 21:05:00,63.4,51.4,29.82,SE,133,3.0,3.0,65,0.00,,---,0.00,0.00,VWS V14.01,2013-09-24 02:05:00,
2013-09-23 21:10:00,63.2,51.2,29.82,SSE,148,3.0,6.0,65,0.00,,---,0.00,0.00,VWS V14.01,2013-09-24 02:10:00,
2013-09-23 21:15:00,63.1,51.2,29.82,ESE,123,3.0,3.0,65,0.00,,---,0.00,0.00,VWS V14.01,2013-09-24 02:15:00,
2013-09-23 21:20:00,62.9,51.4,29.82,ESE,121,3.0,3.0,66,0.00,,---,0.00,0.00,VWS V14.01,2013-09-24 02:20:00,
2013-09-23 21:25:00,62.9,51.4,29.82,SE,140,3.0,8.0,66,0.00,,---,0.00,0.00,VWS V14.01,2013-09-24 02:25:00,
2013-09-23 21:30:00,62.7,51.2,29.83,SE,127,10.0,10.0,66,0.00,,---,0.00,0.00,VWS V14.01,2013-09-24 02:30:00,
2013-09-23 21:35:00,62.6,51.1,29.83,ESE,104,5.0,5.0,66,0.00,,---,0.00,0.00,VWS V14.01,2013-09-24 02:35:00,
2013-09-23 21:40:00,62.4,50.9,29.83,ESE,120,2.0,2.0,66,0.00,,---,0.00,0.00,VWS V14.01,2013-09-24 02:40:00,
2013-09-23 21:45:00,62.4,50.9,29.83,SSE,162,2.0,2.0,66,0.00,,---,0.00,0.00,VWS V14.01,2013-09-24 02:45:00,
2013-09-23 21:50:00,62.3,50.8,29.83,SSE,157,2.0,6.0,66,0.00,,---,0.00,0.00,VWS V14.01,2013-09-24 02:50:00,
2013-09-23 21:55:00,62.1,51.0,29.83,SE,131,6.0,6.0,67,0.00,,---,0.00,0.00,VWS V14.01,2013-09-24 02:55:00,
2013-09-23 22:00:00,62.1,51.0,29.84,ESE,114,3.0,3.0,67,0.00,,---,0.00,0.00,VWS V14.01,2013-09-24 03:00:00,
2013-09-23 22:04:00,62.0,50.9,29.84,SE,126,1.0,1.0,67,0.00,,---,0.00,0.00,VWS V14.01,2013-09-24 03:04:00,
2013-09-23 22:09:00,61.8,50.7,29.84,SSE,161,0.0,0.0,67,0.00,,---,0.00,0.00,VWS V14.01,2013-09-24 03:09:00,
2013-09-23 22:14:00,61.8,50.7,29.84,ESE,109,2.0,4.0,67,0.00,,---,0.00,0.00,VWS V14.01,2013-09-24 03:14:00,
2013-09-23 22:19:00,61.6,50.5,29.83,ESE,113,1.0,5.0,67,0.00,,---,0.00,0.00,VWS V14.01,2013-09-24 03:19:00,
2013-09-23 22:24:00,61.5,50.5,29.83,South,182,2.0,2.0,67,0.00,,---,0.00,0.00,VWS V14.01,2013-09-24 03:24:00,
2013-09-23 22:29:00,61.3,50.7,29.83,SE,127,2.0,3.0,68,0.00,,---,0.00,0.00,VWS V14.01,2013-09-24 03:29:00,
2013-09-23 22:34:00,61.3,50.7,29.84,SSE,148,1.0,5.0,68,0.00,,---,0.00,0.00,VWS V14.01,2013-09-24 03:34:00,
2013-09-23 22:39:00,61.2,50.6,29.84,SSE,148,2.0,2.0,68,0.00,,---,0.00,0.00,VWS V14.01,2013-09-24 03:39:00,
2013-09-23 22:44:00,61.2,50.6,29.84,East,93,1.0,1.0,68,0.00,,---,0.00,0.00,VWS V14.01,2013-09-24 03:44:00,
2013-09-23 22:49:00,61.2,50.6,29.84,ESE,119,3.0,5.0,68,0.00,,---,0.00,0.00,VWS V14.01,2013-09-24 03:49:00,
2013-09-23 22:54:00,61.3,50.3,29.84,ESE,116,3.0,6.0,67,0.00,,---,0.00,0.00,VWS V14.01,2013-09-24 03:54:00,
2013-09-23 22:59:00,61.3,50.3,29.84,SE,128,2.0,7.0,67,0.00,,---,0.00,0.00,VWS V14.01,2013-09-24 03:59:00,
2013-09-23 23:01:00,61.3,50.3,29.83,SE,128,4.0,6.0,67,0.00,,---,0.00,0.00,VWS V14.01,2013-09-24 04:01:00,
2013-09-23 23:06:00,61.5,50.5,29.83,SSE,148,5.0,5.0,67,0.00,,---,0.00,0.00,VWS V14.01,2013-09-24 04:06:00,
2013-09-23 23:11:00,61.3,49.9,29.83,ESE,117,5.0,5.0,66,0.00,,---,0.00,0.00,VWS V14.01,2013-09-24 04:11:00,
2013-09-23 23:16:00,61.3,49.9,29.83,ESE,121,0.0,3.0,66,0.00,,---,0.00,0.00,VWS V14.01,2013-09-24 04:16:00,
2013-09-23 23:21:00,61.3,49.9,29.83,South,189,5.0,5.0,66,0.00,,---,0.00,0.00,VWS V14.01,2013-09-24 04:21:00,
2013-09-23 23:26:00,61.3,49.9,29.83,East,95,8.0,8.0,66,0.00,,---,0.00,0.00,VWS V14.01,2013-09-24 04:26:00,
2013-09-23 23:31:00,61.3,49.9,29.83,ESE,104,5.0,5.0,66,0.00,,---,0.00,0.00,VWS V14.01,2013-09-24 04:31:00,
2013-09-23 23:36:00,61.3,49.9,29.83,ESE,103,6.0,7.0,66,0.00,,---,0.00,0.00,VWS V14.01,2013-09-24 04:36:00,
2013-09-23 23:41:00,61.3,49.9,29.83,SSE,155,3.0,9.0,66,0.00,,---,0.00,0.00,VWS V14.01,2013-09-24 04:41:00,
2013-09-23 23:46:00,61.3,49.9,29.82,SSE,147,0.0,3.0,66,0.00,,---,0.00,0.00,VWS V14.01,2013-09-24 04:46:00,
2013-09-23 23:51:00,61.2,49.8,29.82,ESE,121,6.0,6.0,66,0.00,,---,0.00,0.00,VWS V14.01,2013-09-24 04:51:00,
2013-09-23 23:56:00,61.2,49.8,29.82,SSE,164,1.0,2.0,66,0.00,,---,0.00,0.00,VWS V14.01,2013-09-24 04:56:00,